weather.gov     
National Weather Service

Terminal Aerodrome Forecast
NWS Homepage
This page is being discontinued on March 12, 2014.
The same data is available at this site. Please update your bookmarks.
Thank you, and we apologize for the inconvenience.
Please send an email to SR-SRH.Webmaster@noaa.gov with any concerns.


Current Version
Previous Version:    01  02  03  04  05  06  07  08  09  10  11  12  13  14  15  16  17  18  19  20  21  
[Printable]
697
FTUS41 KPHI 200500
TAFMIV
TAF
KMIV 200526Z 2006/2106 31005KT P6SM SCT250
     FM201000 VRB03KT P6SM BKN250
     FM201600 22008KT P6SM SCT150 BKN250
     FM210100 VRB03KT P6SM BKN100
     FM210400 00000KT P6SM OVC080=


U.S. Dept. of Commerce
NOAA National Weather Service
1325 East West Highway
Silver Spring, MD 20910
E-mail: w-nws.webmaster@noaa.gov
Page last modified: May 16, 2007
NATIONAL WEATHER SERVICE: for Safety, for Work, for Fun - FOR LIFE